Location: Katowice
(50.2611°N, 19.0242°E)
Time: 17:22:22
(UTC+02:00)

Explorer 7 - Pass Details

Date: 29 August 2019
Orbit: 485 x 680 km, 50.3° (Epoch: 17 September)

Event Time Altitude Azimuth Distance (km) Brightness Sun altitude
Rises 07:02:39 0° 202° (SSW) 3,022 10.3 10.1°
Reaches altitude 10° 07:05:31 10° 186° (S) 2,110 9.8 10.5°
Maximum altitude 07:09:06 20° 139° (SE) 1,523 9.8 11.1°
Drops below altitude 10° 07:12:37 10° 92° (E) 2,085 13.4 11.7°
Sets 07:15:26 0° 76° (ENE) 2,976 12.3 12.1°
